Sioux Falls, SD

10:27 AM CST on December 04, 2016 (GMT -0600)
Foss

Weather History for KFSD - January, 2013

Change the Weather History Date:

Tuesday, January 15, 2013

  Actual Average Record
Temperature  
Mean Temperature 19 °F 16 °F  
Max Temperature 28 °F 26 °F 55 °F (1914)
Min Temperature 9 °F 7 °F -32 °F (1972)
Degree Days  
Heating Degree Days 46 49  
Month to date heating degree days 698 735  
Since 1 July heating degree days 3638 3868  
Cooling Degree Days 0 0  
Month to date cooling degree days 0 0  
Year to date cooling degree days 0 0  
Moisture  
Dew Point 9 °F    
Average Humidity 62    
Maximum Humidity 84    
Minimum Humidity 39    
Precipitation  
Precipitation 0.00 in 0.02 in 0.38 in (1909)
Month to date precipitation 0.11 0.28  
Year to date precipitation 0.11 0.28  
Snow  
Snow 0.00 in 0.20 in 4.00 in (1909)
Month to date snowfall 0.1 3.7  
Since 1 July snowfall 13.9 20.6  
Snow Depth 1.00 in    
Sea Level Pressure  
Sea Level Pressure 30.14 in    
Wind  
Wind Speed 8 mph (SSW)    
Max Wind Speed 16 mph    
Max Gust Speed 23 mph    
Visibility 10 miles    
Events      
T = Trace of Precipitation, MM = Missing Value Source: NWS Daily Summary

Daily Weather History Graph

Daily Weather History Graph

Search for Another Location

Airport or City:

Trip Planner

Search our weather history database for the weather conditions in past years. The results will help you decide how hot, cold, wet, or windy it might be!

Date:

Astronomy

Jan. 15, 2013 Rise Set
Actual Time 7:57 AM CST 5:16 PM CST
Civil Twilight 7:25 AM CST 5:48 PM CST
Nautical Twilight 6:49 AM CST 6:23 PM CST
Astronomical Twilight 6:15 AM CST 6:57 PM CST
Moon 9:53 AM CST (1/15) 10:18 PM CST (1/15)
Length of Visible Light 10h 22m
Length of Day
9h 19m
Waxing Crescent, 19% of the Moon is Illuminated
Jan 15
Waxing Crescent
Jan 18
First Quarter
Jan 26
Full
Feb 3
Last Quarter
Feb 10
New

Hourly Weather History & Observations

Time (CST) Temp. Windchill Dew Point Humidity Pressure Visibility Wind Dir Wind Speed Gust Speed Precip Events Conditions
12:56 AM 14.0 °F 6.5 °F 6.8 °F 73% 30.22 in 10.0 mi SSW 4.6 mph - N/A   Clear
1:56 AM 10.9 °F - 5.0 °F 77% 30.30 in 10.0 mi Calm Calm - N/A   Clear
2:56 AM 12.0 °F 2.7 °F 6.1 °F 77% 30.30 in 10.0 mi SSW 5.8 mph - N/A   Clear
3:56 AM 10.0 °F 0.4 °F 5.0 °F 80% 30.28 in 10.0 mi SSW 5.8 mph - N/A   Clear
4:56 AM 10.0 °F 1.8 °F 5.0 °F 80% 30.27 in 10.0 mi SW 4.6 mph - N/A   Clear
5:56 AM 10.0 °F -0.9 °F 6.1 °F 84% 30.25 in 10.0 mi SSW 6.9 mph - N/A   Clear
6:56 AM 10.0 °F 0.4 °F 6.1 °F 84% 30.26 in 10.0 mi SSW 5.8 mph - N/A   Clear
7:56 AM 10.0 °F -0.9 °F 7.0 °F 87% 30.26 in 10.0 mi SSW 6.9 mph - N/A   Clear
8:56 AM 12.9 °F 1.6 °F 9.0 °F 84% 30.26 in 10.0 mi SSW 8.1 mph - N/A   Clear
9:56 AM 18.0 °F 5.4 °F 12.0 °F 78% 30.23 in 10.0 mi SSW 11.5 mph - N/A   Clear
10:56 AM 19.9 °F 7.3 °F 10.9 °F 68% 30.22 in 10.0 mi SSW 12.7 mph - N/A   Clear
11:56 AM 23.0 °F 12.4 °F 10.9 °F 60% 30.19 in 10.0 mi SW 10.4 mph - N/A   Clear
12:56 PM 25.0 °F 14.8 °F 10.9 °F 55% 30.15 in 10.0 mi SSW 10.4 mph 23.0 mph N/A   Clear
1:56 PM 27.0 °F 17.3 °F 10.9 °F 51% 30.13 in 10.0 mi SSW 10.4 mph - N/A   Clear
2:56 PM 28.0 °F 18.6 °F 9.0 °F 45% 30.11 in 10.0 mi SSW 10.4 mph - N/A   Clear
3:56 PM 28.0 °F 18.6 °F 7.0 °F 41% 30.10 in 10.0 mi SW 10.4 mph 19.6 mph N/A   Clear
4:56 PM 27.0 °F 20.5 °F 8.1 °F 45% 30.10 in 10.0 mi SW 5.8 mph - N/A   Clear
5:56 PM 25.0 °F 17.1 °F 8.1 °F 49% 30.08 in 10.0 mi SSW 6.9 mph - N/A   Clear
6:56 PM 21.0 °F 12.4 °F 9.0 °F 60% 30.06 in 10.0 mi South 6.9 mph - N/A   Clear
7:56 PM 24.1 °F 14.4 °F 9.0 °F 53% 30.04 in 10.0 mi SSW 9.2 mph - N/A   Clear
8:56 PM 21.9 °F 12.5 °F 9.0 °F 58% 29.99 in 10.0 mi SSW 8.1 mph - N/A   Clear
9:56 PM 21.0 °F 11.4 °F 9.0 °F 60% 29.97 in 10.0 mi SSW 8.1 mph - N/A   Clear
10:56 PM 21.9 °F 10.4 °F 10.0 °F 60% 29.93 in 10.0 mi SSW 11.5 mph - N/A   Overcast
11:56 PM 23.0 °F 11.1 °F 12.0 °F 63% 29.89 in 10.0 mi SSW 12.7 mph - N/A   Overcast